Location: Waning Moon II Observatory
(30.3730°N, 89.7620°W)
Time: 09:50:33
(UTC-05:00)

Daily predictions for brighter satellites

Satellite Brightness Start Highest point End
(mag) Time Altitude Azimuth Time Altitude Azimuth Time Altitude Azimuth
H-2A R/B 3.9 20:29:12 10° ESE 20:32:03 17° ENE 20:34:54 10° NNE
Meteor 1-24 Rocket 4.2 20:29:06 10° SSW 20:34:43 66° W 20:40:11 10° N
Cosmos 1777 Rocket 4.3 20:30:59 10° S 20:35:58 44° ESE 20:40:57 10° NNE
GPS 2-12 Rocket1 4.5 20:33:49 10° SW 20:37:10 21° S 20:40:34 10° SE
GPS 2-04 Rocket1 3.0 20:32:51 10° WNW 20:37:15 83° NNE 20:41:36 10° ESE
Cosmos 1674 4.3 20:37:31 10° SE 20:40:06 18° E 20:42:43 10° NE
ATLAS CENTAUR R/B 1.4 20:43:08 10° NNW 20:47:33 78° ENE 20:51:33 10° SSE
Cosmos 1743 Rocket 3.6 20:44:29 10° S 20:48:57 72° E 20:53:23 10° N
Cosmos 1939 Rocket 4.3 20:46:31 11° ESE 20:49:20 21° ENE 20:52:19 10° NNE
Cosmos 1833 4.4 20:43:51 10° S 20:49:23 52° ESE 20:54:53 10° NNE
Cosmos 1655 Rocket 4.3 20:45:19 10° SSW 20:51:30 73° W 20:57:43 10° N
Hubble Space Telescope 2.8 20:51:56 10° SSE 20:52:53 11° SSE 20:53:06 11° SSE
Cosmos 332 Rocket 3.8 20:48:26 10° NNW 20:53:18 88° W 20:58:10 10° SSE
S3M 4.1 20:47:27 10° N 20:53:26 54° E 20:59:24 10° SSE
Cosmos 2221 3.7 20:49:27 10° NNW 20:53:29 43° W 20:57:32 10° SSW
Cosmos 1500 Rocket 3.7 20:50:45 10° S 20:54:58 54° E 20:59:16 10° NNE
Cosmos 2228 Rocket 3.1 20:52:17 10° N 20:56:46 68° E 21:01:16 10° SSE
H-2A R/B 3.0 20:53:45 10° S 20:57:36 72° W 21:01:25 10° NNW
CZ-2D R/B 4.2 20:57:06 10° S 21:00:52 49° W 21:04:37 10° NNW
Resurs 01 Rocket 4.4 20:59:42 10° SW 21:02:22 16° W 21:05:02 10° WNW
Cosmos 1437 Rocket 3.7 21:00:00 10° NNE 21:03:23 29° E 21:05:27 18° SE
Delta 2 Rocket 4.0 21:07:23 10° W 21:10:57 44° NNW 21:14:14 10° ENE
OAO 2 Rocket 3.5 21:06:44 10° SW 21:11:54 54° SSE 21:17:06 10° ENE
Cosmos 1538 Rocket 4.0 21:06:42 10° NNW 21:12:03 76° ENE 21:16:31 15° SSE
deb Chang Zheng 4 3.5 21:08:12 10° NNE 21:12:32 81° ESE 21:16:53 10° S
Meteor 1-21 Rocket 4.3 21:07:30 10° S 21:13:03 83° W 21:18:36 10° N
USA 186 3.6 21:15:58 10° SSW 21:17:46 19° W 21:19:36 10° NW
Cosmos 1328 4.4 21:21:48 26° SE 21:23:18 37° E 21:26:57 10° NNE
Cosmos 2292 4.4 21:22:13 10° N 21:25:16 80° W 21:27:33 20° S
ALOS 4.0 21:22:36 10° SSW 21:26:42 31° W 21:30:50 10° NW
Cosmos 371 Rocket 3.8 21:24:04 10° NNW 21:28:45 56° WSW 21:32:44 14° S
Cosmos 1515 Rocket 3.5 21:24:30 10° N 21:28:56 86° W 21:32:05 19° S
Cosmos 2151 3.0 21:26:47 21° SSE 21:29:22 57° E 21:33:29 10° NNE
Cosmos 773 Rocket 4.0 21:26:58 10° N 21:32:08 64° ENE 21:34:56 27° SSE
Nimbus 7 Rocket 4.4 21:27:42 10° NNE 21:33:35 86° WNW 21:39:27 10° SSW
Sich 1 4.4 21:34:24 21° E 21:34:24 21° E 21:37:39 10° NE
Cosmos 1633 Rocket 4.5 21:36:53 21° E 21:36:53 21° E 21:39:54 10° NE
Meteor 2-20 Rocket 4.4 21:32:29 10° S 21:38:39 89° W 21:44:49 10° N
Cosmos 2219 3.1 21:33:07 10° SSW 21:38:50 75° ESE 21:44:34 10° NNE
Tiangong 1 1.8 21:36:29 10° WSW 21:39:31 51° NNW 21:42:32 10° NE
H-2A R/B 1.6 21:37:46 10° WSW 21:39:30 26° SW 21:39:30 26° SW
NOSS 3-1 (A) 3.4 21:35:31 10° S 21:41:02 51° ESE 21:46:59 10° NE
Cosmos 2266 Rocket 4.1 21:36:29 10° S 21:42:49 78° W 21:49:04 10° N
Cosmos 1726 4.2 21:41:27 10° NE 21:43:05 15° ENE 21:43:05 15° ENE
SPOT 5 2.7 21:43:57 36° SE 21:45:39 67° ENE 21:50:20 10° N
Delta 128 4.5 21:41:59 10° W 21:46:07 32° SSW 21:46:50 30° S
SL-14 R/B 4.2 21:48:33 31° ENE 21:48:33 31° ENE 21:51:39 10° NNE
Cosmos 2058 2.9 21:49:04 48° SE 21:49:51 59° E 21:53:54 10° NNE
Cosmos 1151 Rocket 2.9 21:45:51 10° N 21:50:10 87° W 21:51:50 37° S
Cosmos 1805 Rocket 3.6 21:50:00 43° SSE 21:51:11 59° E 21:55:34 10° NNE
Cosmos 2315 Rocket 4.1 21:45:14 10° N 21:51:18 55° E 21:53:45 34° SE
Cosmos 2322 3.8 21:47:51 10° NNW 21:53:32 64° ENE 21:55:36 39° SE
PSLV R/B 3.2 21:54:37 74° NNE 21:54:37 74° NNE 21:57:28 10° N
Cosmos 2322 Rocket 3.4 21:50:42 10° NW 21:55:44 35° WSW 21:59:50 15° SSW
Envisat 3.3 21:56:35 27° S 21:59:19 64° W 22:04:22 10° NNW
Cosmos 1437 4.0 21:58:21 26° SW 21:59:42 40° W 22:02:50 10° N
ERS-1 Rocket 4.5 21:59:13 12° SSW 22:03:14 32° W 22:07:43 10° NW
ATLAS 2AS CENTAUR R/B 3.6 22:03:26 30° ESE 22:03:26 30° ESE 22:09:51 10° NE
Cosmos 1244 Rocket 4.4 22:02:00 30° S 22:05:16 75° E 22:11:33 10° N
Cosmos 2360 Rocket 2.1 21:59:50 10° NNW 22:05:30 86° ENE 22:07:21 45° SSE
SL-16 R/B 3.7 22:01:39 10° NW 22:06:31 30° WSW 22:10:20 15° SSW
MetOp-B 4.0 22:05:52 43° SSE 22:07:43 88° ENE 22:13:05 10° NNW
H-2A R/B 3.5 22:05:11 20° SSW 22:07:43 35° W 22:11:51 10° NNW
Cosmos 304 Rocket 3.7 22:04:14 10° NNW 22:09:04 87° WSW 22:10:03 57° S
Cosmos 1666 Rocket 3.3 22:13:17 75° SE 22:13:33 80° E 22:17:58 10° N
Cosmos 1707 Rocket 3.6 22:11:21 10° N 22:15:29 61° ENE 22:15:29 61° ENE
Cosmos 2298 Rocket 4.0 22:14:15 30° SSW 22:16:57 82° WNW 22:22:17 10° NNE
GPS 2-04 Rocket1 4.4 22:13:24 10° W 22:16:24 24° SW 22:16:24 24° SW
Cosmos 1375 Rocket 4.5 22:10:39 10° NNW 22:17:13 83° WSW 22:19:18 46° SSE
Cosmos 2112 Rocket 3.9 22:12:01 10° NNW 22:17:16 88° ENE 22:18:17 60° SSE
Meteor 1-11 4.2 22:16:31 34° SSW 22:19:10 82° W 22:24:56 10° N
Cosmos 1937 Rocket 3.4 22:20:01 61° ESE 22:20:09 61° ESE 22:25:18 10° NNE
Meteor 2-11 Rocket 4.4 22:15:59 10° N 22:22:07 70° E 22:23:25 54° SE
SL-08 R/B 4.5 22:21:45 52° SE 22:22:57 62° E 22:29:07 10° NNE
Cosmos 1745 Rocket 4.1 22:22:21 49° ESE 22:23:06 52° E 22:29:05 10° NNE
Cosmos 2227 Rocket 2.8 22:27:04 40° ENE 22:27:04 40° ENE 22:31:24 10° NE
DELTA 2 R/B (1) 3.8 22:20:50 10° WNW 22:26:19 61° NNE 22:27:37 48° ENE
NOSS 3-1 (C) 4.3 22:22:43 10° SW 22:28:15 47° NW 22:34:17 10° NNE
Cosmos 990 Rocket 4.4 22:33:44 46° ENE 22:33:44 46° ENE 22:37:43 10° NNE
Cosmos 1300 3.4 22:28:56 10° N 22:31:57 53° NNW 22:31:57 53° NNW
YAOGAN 6 3.9 22:35:21 38° WNW 22:35:21 38° WNW 22:38:16 10° NNW
Terra 2.8 22:39:02 35° NE 22:39:02 35° NE 22:42:37 10° N
H-2A R/B 2.6 22:39:08 47° ENE 22:39:08 47° ENE 22:44:05 10° N
Cosmos 2333 Rocket 3.4 22:38:18 10° N 22:43:13 29° ENE 22:43:14 29° ENE
Cosmos 1386 Rocket 4.4 22:50:12 63° ENE 22:50:12 63° ENE 22:55:51 10° NNE
SPOT 1/Viking Rocket 4.1 22:50:46 46° WSW 22:51:14 47° W 22:56:11 10° NNW
Cosmos 2297 Rocket 3.0 22:55:00 39° NE 22:55:00 39° NE 22:58:45 10° NNE
COSMOS 2428 2.6 22:49:20 10° NNW 22:55:00 76° WSW 22:55:01 76° WSW
OAO 2 Rocket 3.8 22:51:30 10° W 22:56:47 63° NNW 22:57:14 60° NNE
ARGOS 3.7 22:59:48 48° WSW 23:00:07 49° W 23:05:20 10° NNW
Cosmos 2242 Rocket 4.5 22:58:15 10° NNW 23:01:39 47° NW 23:01:39 47° NW
Cosmos 2219 Rocket 2.5 23:01:39 10° NNW 23:06:29 58° NNE 23:06:29 58° NNE
Cosmos 1980 4.3 23:18:53 10° NNW 23:23:22 52° NNE 23:23:22 52° NNE
Lacrosse 4 Rocket 4.2 23:23:41 10° NNE 23:24:39 12° NE 23:24:39 12° NE
Cosmos 2237 Rocket 2.8 23:31:39 10° NNW 23:36:00 53° N 23:36:00 53° N
COSMOS 2455 3.9 23:44:55 10° N 23:49:34 37° NE 23:49:34 37° NE
